Time,TemperatureF,DewpointF,PressureIn,WindDirection,WindDirectionDegrees,WindSpeedMPH,WindSpeedGustMPH,Humidity,HourlyPrecipIn,Conditions,Clouds,dailyrainin,SoftwareType,DateUTC
2013-02-20 00:00:00,41.1,15.0,30.03,West,267,5.0,17.0,35,0.00,,,0.16,weatherlink.com 1.10,2013-02-20 05:00:00,
2013-02-20 00:15:00,40.7,15.0,30.04,WNW,282,9.0,14.0,35,0.00,,,0.00,weatherlink.com 1.10,2013-02-20 05:15:00,
2013-02-20 00:30:00,40.5,14.0,30.04,West,276,17.0,17.0,34,0.00,,,0.00,weatherlink.com 1.10,2013-02-20 05:30:00,
2013-02-20 00:45:00,40.1,14.0,30.05,NW,304,8.0,16.0,35,0.00,,,0.00,weatherlink.com 1.10,2013-02-20 05:45:00,
2013-02-20 01:00:00,39.7,14.0,30.05,WNW,288,6.0,14.0,35,0.00,,,0.00,weatherlink.com 1.10,2013-02-20 06:00:00,
2013-02-20 01:15:00,39.8,13.0,30.05,WSW,250,8.0,19.0,34,0.00,,,0.00,weatherlink.com 1.10,2013-02-20 06:15:00,
2013-02-20 01:30:00,39.5,14.0,30.05,WSW,247,8.0,18.0,35,0.00,,,0.00,weatherlink.com 1.10,2013-02-20 06:30:00,
2013-02-20 01:45:00,39.2,14.0,30.05,West,267,5.0,16.0,35,0.00,,,0.00,weatherlink.com 1.10,2013-02-20 06:45:00,
2013-02-20 02:00:00,38.5,13.0,30.04,West,272,5.0,14.0,35,0.00,,,0.00,weatherlink.com 1.10,2013-02-20 07:00:00,
2013-02-20 02:15:00,37.8,13.0,30.03,West,279,3.0,10.0,36,0.00,,,0.00,weatherlink.com 1.10,2013-02-20 07:15:00,
2013-02-20 02:30:00,37.8,12.0,30.04,NW,321,3.0,11.0,35,0.00,,,0.00,weatherlink.com 1.10,2013-02-20 07:30:00,
2013-02-20 02:46:00,37.4,12.0,30.04,West,278,4.0,11.0,35,0.00,,,0.00,weatherlink.com 1.10,2013-02-20 07:46:00,
2013-02-20 03:01:00,36.7,12.0,30.04,WSW,253,4.0,7.0,36,0.00,,,0.00,weatherlink.com 1.10,2013-02-20 08:01:00,
2013-02-20 03:16:00,36.6,12.0,30.05,NW,308,1.0,7.0,36,0.00,,,0.00,weatherlink.com 1.10,2013-02-20 08:16:00,
2013-02-20 03:31:00,36.4,12.0,30.04,West,277,0.0,8.0,36,0.00,,,0.00,weatherlink.com 1.10,2013-02-20 08:31:00,
2013-02-20 03:46:00,35.6,13.0,30.04,East,89,1.0,3.0,39,0.00,,,0.00,weatherlink.com 1.10,2013-02-20 08:46:00,
2013-02-20 04:01:00,34.0,13.0,30.04,East,86,0.0,2.0,42,0.00,,,0.00,weatherlink.com 1.10,2013-02-20 09:01:00,
2013-02-20 04:16:00,31.5,14.0,30.04,WNW,286,0.0,1.0,49,0.00,,,0.00,weatherlink.com 1.10,2013-02-20 09:16:00,
2013-02-20 04:31:00,29.8,14.0,30.04,SSE,166,0.0,2.0,51,0.00,,,0.00,weatherlink.com 1.10,2013-02-20 09:31:00,
2013-02-20 04:46:00,28.7,14.0,30.04,WSW,246,0.0,2.0,55,0.00,,,0.00,weatherlink.com 1.10,2013-02-20 09:46:00,
2013-02-20 05:01:00,27.9,15.0,30.04,WSW,246,0.0,1.0,59,0.00,,,0.00,weatherlink.com 1.10,2013-02-20 10:01:00,
2013-02-20 05:16:00,27.5,16.0,30.04,WSW,246,0.0,0.0,61,0.00,,,0.00,weatherlink.com 1.10,2013-02-20 10:16:00,
2013-02-20 05:31:00,27.1,15.0,30.04,West,269,0.0,3.0,60,0.00,,,0.00,weatherlink.com 1.10,2013-02-20 10:31:00,
2013-02-20 05:46:00,26.6,16.0,30.04,WSW,257,3.0,4.0,64,0.00,,,0.00,weatherlink.com 1.10,2013-02-20 10:46:00,
2013-02-20 06:01:00,27.2,15.0,30.06,NE,53,0.0,3.0,61,0.00,,,0.00,weatherlink.com 1.10,2013-02-20 11:01:00,
2013-02-20 06:16:00,26.2,16.0,30.05,NE,53,0.0,0.0,66,0.00,,,0.00,weatherlink.com 1.10,2013-02-20 11:16:00,
2013-02-20 06:31:00,25.2,16.0,30.06,NE,53,0.0,0.0,69,0.00,,,0.00,weatherlink.com 1.10,2013-02-20 11:31:00,
2013-02-20 06:46:00,24.3,17.0,30.06,NE,53,0.0,0.0,74,0.00,,,0.00,weatherlink.com 1.10,2013-02-20 11:46:00,
2013-02-20 07:01:00,23.6,17.0,30.06,North,11,1.0,2.0,76,0.00,,,0.00,weatherlink.com 1.10,2013-02-20 12:01:00,
2013-02-20 07:16:00,23.5,17.0,30.07,North,11,0.0,0.0,76,0.00,,,0.00,weatherlink.com 1.10,2013-02-20 12:16:00,
2013-02-20 07:31:00,23.8,17.0,30.07,WSW,245,0.0,2.0,76,0.00,,,0.00,weatherlink.com 1.10,2013-02-20 12:31:00,
2013-02-20 07:46:00,24.4,16.0,30.07,SE,143,2.0,3.0,70,0.00,,,0.00,weatherlink.com 1.10,2013-02-20 12:46:00,
2013-02-20 08:01:00,25.8,18.0,30.07,ENE,65,0.0,2.0,71,0.00,,,0.00,weatherlink.com 1.10,2013-02-20 13:01:00,
2013-02-20 08:16:00,26.5,18.0,30.08,ENE,65,0.0,0.0,70,0.00,,,0.00,weatherlink.com 1.10,2013-02-20 13:16:00,
2013-02-20 08:31:00,27.5,21.0,30.08,ENE,65,0.0,1.0,75,0.00,,,0.00,weatherlink.com 1.10,2013-02-20 13:31:00,
2013-02-20 08:47:00,28.4,20.0,30.09,ENE,65,0.0,0.0,70,0.00,,,0.00,weatherlink.com 1.10,2013-02-20 13:47:00,
2013-02-20 09:02:00,29.5,21.0,30.09,ENE,65,0.0,0.0,70,0.00,,,0.00,weatherlink.com 1.10,2013-02-20 14:02:00,
2013-02-20 09:17:00,30.9,21.0,30.09,ENE,65,0.0,0.0,66,0.00,,,0.00,weatherlink.com 1.10,2013-02-20 14:17:00,
2013-02-20 09:32:00,32.5,21.0,30.10,ENE,65,0.0,1.0,64,0.00,,,0.00,weatherlink.com 1.10,2013-02-20 14:32:00,
2013-02-20 09:47:00,34.5,22.0,30.10,ENE,65,0.0,1.0,61,0.00,,,0.00,weatherlink.com 1.10,2013-02-20 14:47:00,
2013-02-20 10:02:00,38.0,20.0,30.10,ENE,66,1.0,2.0,49,0.00,,,0.00,weatherlink.com 1.10,2013-02-20 15:02:00,
2013-02-20 10:17:00,41.2,13.0,30.09,NNE,33,4.0,6.0,32,0.00,,,0.00,weatherlink.com 1.10,2013-02-20 15:17:00,
2013-02-20 10:32:00,43.1,16.0,30.09,NE,46,1.0,6.0,34,0.00,,,0.00,weatherlink.com 1.10,2013-02-20 15:32:00,
2013-02-20 10:47:00,44.2,14.0,30.09,NE,54,3.0,6.0,29,0.00,,,0.00,weatherlink.com 1.10,2013-02-20 15:47:00,
2013-02-20 11:02:00,45.1,11.0,30.09,SW,229,1.0,6.0,25,0.00,,,0.00,weatherlink.com 1.10,2013-02-20 16:02:00,
2013-02-20 11:17:00,46.9,12.0,30.09,NNW,333,3.0,7.0,24,0.00,,,0.00,weatherlink.com 1.10,2013-02-20 16:17:00,
2013-02-20 11:32:00,48.0,12.0,30.08,East,97,7.0,7.0,23,0.00,,,0.00,weatherlink.com 1.10,2013-02-20 16:32:00,
2013-02-20 11:47:00,48.3,8.0,30.07,WSW,252,4.0,8.0,19,0.00,,,0.00,weatherlink.com 1.10,2013-02-20 16:47:00,
2013-02-20 12:02:00,48.9,8.0,30.07,NW,305,2.0,8.0,19,0.00,,,0.00,weatherlink.com 1.10,2013-02-20 17:02:00,
2013-02-20 12:17:00,50.0,7.0,30.05,NE,35,4.0,9.0,17,0.00,,,0.00,weatherlink.com 1.10,2013-02-20 17:17:00,
2013-02-20 12:32:00,50.2,7.0,30.05,NW,321,4.0,6.0,17,0.00,,,0.00,weatherlink.com 1.10,2013-02-20 17:32:00,
2013-02-20 12:47:00,51.1,7.0,30.05,SE,132,0.0,7.0,17,0.00,,,0.00,weatherlink.com 1.10,2013-02-20 17:47:00,
2013-02-20 13:02:00,52.1,1.0,30.04,West,279,6.0,10.0,12,0.00,,,0.00,weatherlink.com 1.10,2013-02-20 18:02:00,
2013-02-20 13:17:00,52.3,3.0,30.04,WNW,302,1.0,10.0,13,0.00,,,0.00,weatherlink.com 1.10,2013-02-20 18:17:00,
2013-02-20 13:32:00,53.3,0.0,30.03,NNW,338,2.0,7.0,11,0.00,,,0.00,weatherlink.com 1.10,2013-02-20 18:32:00,
2013-02-20 13:48:00,53.7,0.0,30.02,NNW,346,7.0,9.0,11,0.00,,,0.00,weatherlink.com 1.10,2013-02-20 18:48:00,
2013-02-20 14:03:00,54.0,-2.0,30.01,WNW,290,3.0,10.0,10,0.00,,,0.00,weatherlink.com 1.10,2013-02-20 19:03:00,
2013-02-20 14:18:00,54.4,-1.0,30.01,West,272,4.0,10.0,10,0.00,,,0.00,weatherlink.com 1.10,2013-02-20 19:18:00,
2013-02-20 14:33:00,54.8,1.0,30.00,WSW,257,7.0,9.0,11,0.00,,,0.00,weatherlink.com 1.10,2013-02-20 19:33:00,
2013-02-20 14:48:00,54.4,-4.0,30.01,SW,236,4.0,10.0,9,0.00,,,0.00,weatherlink.com 1.10,2013-02-20 19:48:00,
2013-02-20 15:03:00,54.3,-2.0,30.01,WSW,258,4.0,8.0,10,0.00,,,0.00,weatherlink.com 1.10,2013-02-20 20:03:00,
2013-02-20 15:18:00,55.1,-1.0,30.01,WNW,302,3.0,9.0,10,0.00,,,0.00,weatherlink.com 1.10,2013-02-20 20:18:00,
2013-02-20 15:33:00,55.1,-1.0,30.01,West,277,4.0,9.0,10,0.00,,,0.00,weatherlink.com 1.10,2013-02-20 20:33:00,
2013-02-20 15:48:00,55.5,1.0,30.01,WSW,252,4.0,11.0,11,0.00,,,0.00,weatherlink.com 1.10,2013-02-20 20:48:00,
2013-02-20 16:03:00,54.7,1.0,30.01,SW,232,5.0,10.0,11,0.00,,,0.00,weatherlink.com 1.10,2013-02-20 21:03:00,
2013-02-20 16:18:00,54.8,5.0,30.02,SSW,211,2.0,11.0,13,0.00,,,0.00,weatherlink.com 1.10,2013-02-20 21:18:00,
2013-02-20 16:33:00,54.1,0.0,30.03,South,178,2.0,9.0,11,0.00,,,0.00,weatherlink.com 1.10,2013-02-20 21:33:00,
2013-02-20 16:48:00,53.5,5.0,30.03,West,261,3.0,9.0,14,0.00,,,0.00,weatherlink.com 1.10,2013-02-20 21:48:00,
2013-02-20 17:03:00,52.8,3.0,30.03,SW,217,3.0,10.0,13,0.00,,,0.00,weatherlink.com 1.10,2013-02-20 22:03:00,
2013-02-20 17:19:00,52.3,6.0,30.05,SW,221,8.0,9.0,15,0.00,,,0.00,weatherlink.com 1.10,2013-02-20 22:19:00,
2013-02-20 17:34:00,51.7,4.0,30.06,West,270,6.0,13.0,14,0.00,,,0.00,weatherlink.com 1.10,2013-02-20 22:34:00,
2013-02-20 17:49:00,51.0,5.0,30.07,West,264,3.0,10.0,15,0.00,,,0.00,weatherlink.com 1.10,2013-02-20 22:49:00,
2013-02-20 18:04:00,50.4,4.0,30.07,West,266,6.0,11.0,15,0.00,,,0.00,weatherlink.com 1.10,2013-02-20 23:04:00,
2013-02-20 18:19:00,49.6,2.0,30.07,WNW,286,4.0,10.0,14,0.00,,,0.00,weatherlink.com 1.10,2013-02-20 23:19:00,
2013-02-20 18:34:00,49.1,-2.0,30.07,WNW,290,4.0,8.0,12,0.00,,,0.00,weatherlink.com 1.10,2013-02-20 23:34:00,
2013-02-20 18:49:00,48.7,-2.0,30.07,WSW,252,2.0,7.0,12,0.00,,,0.00,weatherlink.com 1.10,2013-02-20 23:49:00,
2013-02-20 19:04:00,47.5,-1.0,30.07,West,264,3.0,5.0,13,0.00,,,0.00,weatherlink.com 1.10,2013-02-21 00:04:00,
2013-02-20 19:19:00,45.7,3.0,30.07,West,267,3.0,6.0,17,0.00,,,0.00,weatherlink.com 1.10,2013-02-21 00:19:00,
2013-02-20 19:34:00,46.1,-2.0,30.07,NW,321,2.0,5.0,13,0.00,,,0.00,weatherlink.com 1.10,2013-02-21 00:34:00,
2013-02-20 19:49:00,46.0,-1.0,30.08,NW,309,3.0,6.0,14,0.00,,,0.00,weatherlink.com 1.10,2013-02-21 00:49:00,
2013-02-20 20:04:00,45.1,1.0,30.08,North,355,1.0,6.0,16,0.00,,,0.00,weatherlink.com 1.10,2013-02-21 01:04:00,
2013-02-20 20:19:00,44.4,2.0,30.08,North,5,0.0,2.0,17,0.00,,,0.00,weatherlink.com 1.10,2013-02-21 01:19:00,
2013-02-20 20:34:00,41.2,9.0,30.08,North,360,2.0,2.0,27,0.00,,,0.00,weatherlink.com 1.10,2013-02-21 01:34:00,
2013-02-20 20:50:00,40.1,8.0,30.08,NNE,26,1.0,3.0,27,0.00,,,0.00,weatherlink.com 1.10,2013-02-21 01:50:00,
2013-02-20 21:05:00,40.6,7.0,30.09,NNW,331,0.0,4.0,25,0.00,,,0.00,weatherlink.com 1.10,2013-02-21 02:05:00,
2013-02-20 21:20:00,40.2,9.0,30.09,NW,315,1.0,2.0,27,0.00,,,0.00,weatherlink.com 1.10,2013-02-21 02:20:00,
2013-02-20 21:35:00,39.5,10.0,30.09,NW,321,1.0,2.0,29,0.00,,,0.00,weatherlink.com 1.10,2013-02-21 02:35:00,
2013-02-20 21:50:00,38.9,9.0,30.10,NW,320,1.0,3.0,29,0.00,,,0.00,weatherlink.com 1.10,2013-02-21 02:50:00,
2013-02-20 22:05:00,39.0,8.0,30.10,NW,325,0.0,2.0,28,0.00,,,0.00,weatherlink.com 1.10,2013-02-21 03:05:00,
2013-02-20 22:20:00,38.3,6.0,30.10,NNW,340,2.0,4.0,26,0.00,,,0.00,weatherlink.com 1.10,2013-02-21 03:20:00,
2013-02-20 22:35:00,38.1,7.0,30.10,North,355,0.0,2.0,27,0.00,,,0.00,weatherlink.com 1.10,2013-02-21 03:35:00,
2013-02-20 22:50:00,36.6,11.0,30.10,North,355,0.0,0.0,34,0.00,,,0.00,weatherlink.com 1.10,2013-02-21 03:50:00,
2013-02-20 23:05:00,35.2,9.0,30.10,NNW,343,0.0,1.0,34,0.00,,,0.00,weatherlink.com 1.10,2013-02-21 04:05:00,
2013-02-20 23:20:00,36.4,6.0,30.10,North,355,2.0,4.0,28,0.00,,,0.00,weatherlink.com 1.10,2013-02-21 04:20:00,
2013-02-20 23:35:00,37.2,5.0,30.10,NW,323,2.0,5.0,26,0.00,,,0.00,weatherlink.com 1.10,2013-02-21 04:35:00,
2013-02-20 23:50:00,36.8,5.0,30.11,NE,51,0.0,4.0,26,0.00,,,0.00,weatherlink.com 1.10,2013-02-21 04:50:00,